sat.trackr.live / text

‹ back to catalog

STARLINK-34519

NORAD 64608 · 2025-137Q

PAYLOAD ACTIVE UNKNOWN

§ Identity

Operator
Country
US
Launch date
2025-06-25
Launch site
AFETR
Launch vehicle
Mass (kg)
RCS (m²)

Purposes: comms

External: N2YO · Heavens-Above · Gunter

§ Orbital elements

Epoch: 2026-09-20T06:21:41.463072Z

Period
93.85 min
Inclination
53.1572°
Eccentricity
0.0001262
Mean motion
15.34409107 rev/d
Perigee alt
461.8 km
Apogee alt
463.5 km
Semi-major
6,840.8 km
B*
5.7129e-4
RAAN
148.7320°
Arg perigee
96.7445°
Mean anomaly
263.3701°
Rev number
7,056

§ Raw data

STARLINK-345191 64608U 25137Q   26263.26506323  .00018980  00000+0  57129-3 0  99902 64608  53.1572 148.7320 0001262  96.7445 263.3701 15.34409107 70564

JSON: /api/v1/satellites/64608 · /tle

For live sub-satellite position, see the globe view (requires WebGL).

§ Visibility from observer

Set your observer location to see the next 7 days of passes ≥ 10°. The values pass through the URL so the page stays shareable.

No JS? Fill the form by hand. The geolocation button needs JavaScript.